TimeEDT,TemperatureF,Dew PointF,Humidity,Sea Level PressureIn,VisibilityMPH,Wind Direction,Wind SpeedMPH,Gust SpeedMPH,PrecipitationIn,Events,Conditions,WindDirDegrees,DateUTC
12:18 AM,44.6,44.6,100,30.32,1.5,Calm,Calm,-,N/A,,Unknown,0,2013-05-01 04:18:00
12:39 AM,44.6,42.8,93,30.32,1.8,Calm,Calm,-,N/A,,Unknown,0,2013-05-01 04:39:00
12:57 AM,44.6,42.8,93,30.32,3.0,Calm,Calm,-,N/A,,Clear,0,2013-05-01 04:57:00
1:18 AM,44.6,42.8,93,30.32,3.0,Calm,Calm,-,N/A,,Clear,0,2013-05-01 05:18:00
1:39 AM,44.6,42.8,93,30.33,5.0,Calm,Calm,-,N/A,,Clear,0,2013-05-01 05:39:00
1:57 AM,42.8,41.0,93,30.32,4.0,Calm,Calm,-,N/A,,Clear,0,2013-05-01 05:57:00
2:18 AM,42.8,41.0,93,30.32,5.0,Calm,Calm,-,N/A,,Clear,0,2013-05-01 06:18:00
2:39 AM,42.8,41.0,93,30.32,2.5,Calm,Calm,-,N/A,,Clear,0,2013-05-01 06:39:00
2:57 AM,41.0,41.0,100,30.32,7.0,Calm,Calm,-,N/A,,Clear,0,2013-05-01 06:57:00
3:18 AM,41.0,41.0,100,30.33,5.0,Calm,Calm,-,N/A,,Clear,0,2013-05-01 07:18:00
3:39 AM,41.0,39.2,93,30.33,7.0,Calm,Calm,-,N/A,,Clear,0,2013-05-01 07:39:00
3:57 AM,41.0,41.0,100,30.33,5.0,Calm,Calm,-,N/A,,Clear,0,2013-05-01 07:57:00
4:18 AM,41.0,39.2,93,30.34,4.0,Calm,Calm,-,N/A,,Clear,0,2013-05-01 08:18:00
4:39 AM,37.4,37.4,100,30.34,4.0,Calm,Calm,-,N/A,,Clear,0,2013-05-01 08:39:00
5:00 AM,39.2,37.4,93,30.34,5.0,Calm,Calm,-,N/A,,Clear,0,2013-05-01 09:00:00
5:18 AM,41.0,39.2,93,30.34,4.0,Calm,Calm,-,N/A,,Clear,0,2013-05-01 09:18:00
5:39 AM,39.2,37.4,93,30.34,7.0,Calm,Calm,-,N/A,,Clear,0,2013-05-01 09:39:00
6:00 AM,41.0,37.4,87,30.35,10.0,NNE,3.5,-,N/A,,Clear,30,2013-05-01 10:00:00
6:18 AM,41.0,37.4,87,30.35,10.0,Calm,Calm,-,N/A,,Clear,0,2013-05-01 10:18:00
6:39 AM,41.0,37.4,87,30.36,7.0,Calm,Calm,-,N/A,,Clear,0,2013-05-01 10:39:00
7:00 AM,41.0,41.0,100,30.37,7.0,Calm,Calm,-,N/A,,Clear,0,2013-05-01 11:00:00
7:18 AM,46.4,41.0,81,30.37,10.0,NNE,3.5,-,N/A,,Clear,30,2013-05-01 11:18:00
7:39 AM,50.0,39.2,66,30.38,10.0,NNE,6.9,-,N/A,,Clear,20,2013-05-01 11:39:00
8:00 AM,51.8,39.2,62,30.39,10.0,NNE,6.9,-,N/A,,Clear,30,2013-05-01 12:00:00
8:18 AM,51.8,39.2,62,30.39,10.0,NNE,6.9,-,N/A,,Clear,30,2013-05-01 12:18:00
8:39 AM,53.6,39.2,58,30.40,10.0,ENE,5.8,-,N/A,,Clear,70,2013-05-01 12:39:00
9:00 AM,55.4,37.4,51,30.40,10.0,NE,5.8,-,N/A,,Clear,40,2013-05-01 13:00:00
9:18 AM,55.4,37.4,51,30.41,10.0,NNE,6.9,-,N/A,,Clear,30,2013-05-01 13:18:00
9:39 AM,57.2,39.2,51,30.41,10.0,ENE,6.9,-,N/A,,Clear,70,2013-05-01 13:39:00
10:00 AM,59.0,39.2,48,30.42,10.0,East,8.1,-,N/A,,Clear,80,2013-05-01 14:00:00
10:18 AM,59.0,41.0,51,30.42,10.0,ENE,8.1,-,N/A,,Clear,70,2013-05-01 14:18:00
10:39 AM,60.8,37.4,42,30.42,10.0,East,8.1,-,N/A,,Clear,80,2013-05-01 14:39:00
11:00 AM,60.8,39.2,45,30.42,10.0,East,9.2,-,N/A,,Clear,80,2013-05-01 15:00:00
11:18 AM,60.8,39.2,45,30.42,10.0,ENE,5.8,-,N/A,,Clear,60,2013-05-01 15:18:00
11:39 AM,62.6,39.2,42,30.42,10.0,ENE,8.1,-,N/A,,Clear,60,2013-05-01 15:39:00
12:00 PM,62.6,37.4,39,30.42,10.0,East,10.4,-,N/A,,Clear,100,2013-05-01 16:00:00
12:18 PM,62.6,37.4,39,30.42,10.0,East,9.2,-,N/A,,Clear,100,2013-05-01 16:18:00
12:39 PM,62.6,39.2,42,30.41,10.0,East,11.5,17.3,N/A,,Clear,100,2013-05-01 16:39:00
1:00 PM,64.4,39.2,40,30.41,10.0,ENE,9.2,-,N/A,,Clear,60,2013-05-01 17:00:00
1:18 PM,64.4,41.0,42,30.41,10.0,NE,8.1,-,N/A,,Clear,50,2013-05-01 17:18:00
1:39 PM,64.4,37.4,37,30.40,10.0,East,11.5,-,N/A,,Clear,80,2013-05-01 17:39:00
2:00 PM,66.2,39.2,37,30.40,10.0,NE,5.8,-,N/A,,Clear,50,2013-05-01 18:00:00
2:21 PM,68.0,37.4,33,30.40,10.0,East,8.1,-,N/A,,Clear,80,2013-05-01 18:21:00
2:39 PM,68.0,35.6,30,30.39,10.0,East,5.8,-,N/A,,Clear,80,2013-05-01 18:39:00
3:00 PM,68.0,35.6,30,30.39,10.0,ESE,9.2,-,N/A,,Clear,110,2013-05-01 19:00:00
3:21 PM,68.0,35.6,30,30.39,10.0,East,4.6,11.5,N/A,,Clear,90,2013-05-01 19:21:00
3:39 PM,68.0,33.8,28,30.39,10.0,ESE,9.2,-,N/A,,Clear,110,2013-05-01 19:39:00
4:00 PM,68.0,35.6,30,30.39,10.0,NE,4.6,-,N/A,,Clear,50,2013-05-01 20:00:00
4:21 PM,68.0,35.6,30,30.39,10.0,East,11.5,-,N/A,,Clear,100,2013-05-01 20:21:00
4:39 PM,68.0,33.8,28,30.39,10.0,East,10.4,-,N/A,,Clear,90,2013-05-01 20:39:00
5:00 PM,68.0,35.6,30,30.39,10.0,SE,5.8,9.2,N/A,,Clear,140,2013-05-01 21:00:00
5:21 PM,66.2,35.6,32,30.40,10.0,SE,8.1,-,N/A,,Clear,130,2013-05-01 21:21:00
5:39 PM,66.2,35.6,32,30.40,10.0,ESE,8.1,-,N/A,,Clear,120,2013-05-01 21:39:00
6:00 PM,66.2,35.6,32,30.40,10.0,East,4.6,-,N/A,,Clear,90,2013-05-01 22:00:00
6:21 PM,64.4,35.6,34,30.40,10.0,ESE,8.1,-,N/A,,Clear,110,2013-05-01 22:21:00
6:39 PM,64.4,35.6,34,30.40,10.0,ESE,8.1,-,N/A,,Clear,110,2013-05-01 22:39:00
7:00 PM,64.4,35.6,34,30.40,10.0,ESE,8.1,-,N/A,,Clear,110,2013-05-01 23:00:00
7:21 PM,62.6,37.4,39,30.40,10.0,ESE,9.2,17.3,N/A,,Clear,120,2013-05-01 23:21:00
7:39 PM,60.8,42.8,52,30.41,10.0,ESE,9.2,-,N/A,,Clear,110,2013-05-01 23:39:00
8:00 PM,59.0,44.6,59,30.42,10.0,ESE,6.9,-,N/A,,Clear,110,2013-05-02 00:00:00
8:21 PM,57.2,44.6,63,30.42,10.0,East,10.4,-,N/A,,Clear,100,2013-05-02 00:21:00
8:39 PM,55.4,44.6,67,30.43,10.0,East,6.9,-,N/A,,Clear,100,2013-05-02 00:39:00
9:00 PM,53.6,42.8,67,30.44,10.0,East,8.1,-,N/A,,Clear,100,2013-05-02 01:00:00
9:21 PM,53.6,42.8,67,30.45,10.0,ESE,3.5,-,N/A,,Clear,110,2013-05-02 01:21:00
9:39 PM,51.8,42.8,71,30.45,10.0,East,3.5,-,N/A,,Clear,80,2013-05-02 01:39:00
10:00 PM,50.0,42.8,76,30.45,10.0,East,3.5,-,N/A,,Clear,80,2013-05-02 02:00:00
10:21 PM,51.8,42.8,71,30.45,10.0,ENE,3.5,-,N/A,,Clear,70,2013-05-02 02:21:00
10:39 PM,48.2,42.8,82,30.45,10.0,ENE,4.6,-,N/A,,Clear,70,2013-05-02 02:39:00
11:00 PM,48.2,42.8,82,30.44,10.0,ENE,4.6,-,N/A,,Clear,70,2013-05-02 03:00:00
11:21 PM,48.2,42.8,82,30.44,10.0,East,3.5,-,N/A,,Clear,80,2013-05-02 03:21:00
11:42 PM,50.0,42.8,76,30.43,10.0,ENE,5.8,-,N/A,,Clear,70,2013-05-02 03:42:00